Winter Haven, FL

8:13 PM EST on November 18, 2018 (GMT -0500)
Winter Haven's-Gilbert

Weather History for KGIF - February, 2018

Change the Weather History Date:

Wednesday, February 14, 2018

  Actual Average Record
Temperature  
Mean Temperature 71 °F -  
Max Temperature 80 °F 74 °F 88 °F (1997)
Min Temperature 62 °F 49 °F 31 °F (1958)
Cooling Degree Days 6    
Growing Degree Days 21 (Base 50)    
Moisture  
Dew Point 64 °F    
Average Humidity 88    
Maximum Humidity 100    
Minimum Humidity 56    
Precipitation  
Precipitation 0.00 in - - ()
Sea Level Pressure  
Sea Level Pressure 30.40 in    
Wind  
Wind Speed 8 mph (NE)    
Max Wind Speed 14 mph    
Max Gust Speed -    
Visibility 8 miles    
Events      
Averages and records for this station are not official NWS values.
T = Trace of Precipitation, MM = Missing Value Source: NWS Daily Summary

Daily Weather History Graph

Daily Weather History Graph

Search for Another Location

Airport or City:

Astronomy

Feb. 14, 2018 Rise Set
Actual Time 7:05 AM EST 6:17 PM EST
Civil Twilight 6:41 AM EST 6:41 PM EST
Nautical Twilight 6:13 AM EST 7:08 PM EST
Astronomical Twilight 5:46 AM EST 7:36 PM EST
Moon 6:17 AM EST (2/14) 5:23 PM EST (2/14)
Length of Visible Light 11h 59m
Length of Day
11h 11m
Waning Crescent, 1% of the Moon is Illuminated
Feb 14
Waning Crescent
Feb 15
New
Feb 23
First Quarter
Mar 1
Full
Mar 9
Last Quarter

Hourly Weather History & Observations

Time (EST) Temp. Heat Index Dew Point Humidity Pressure Visibility Wind Dir Wind Speed Gust Speed Precip Events Conditions
12:40 AM 66.9 °F - 64.9 °F 93% 30.43 in 10.0 mi NE 11.5 mph - N/A   Overcast
12:45 AM 66.9 °F - 64.9 °F 93% 30.43 in 10.0 mi NE 12.7 mph - N/A   Overcast
12:53 AM 66.9 °F - 64.9 °F 93% 30.43 in 10.0 mi ENE 12.7 mph - N/A   Overcast
1:01 AM 66.9 °F - 64.9 °F 93% 30.43 in 10.0 mi ENE 11.5 mph - N/A   Overcast
1:26 AM 66.9 °F - 64.9 °F 93% 30.43 in 10.0 mi NE 13.8 mph - N/A   Overcast
1:53 AM 66.9 °F - 64.9 °F 93% 30.42 in 10.0 mi NE 10.4 mph - N/A   Overcast
2:11 AM 66.9 °F - 64.9 °F 93% 30.42 in 9.0 mi NNE 6.9 mph - N/A   Overcast
2:40 AM 66.0 °F - 64.9 °F 96% 30.41 in 8.0 mi NNE 8.1 mph - N/A   Overcast
2:53 AM 66.0 °F - 64.0 °F 93% 30.40 in 7.0 mi NNE 9.2 mph - N/A   Overcast
3:53 AM 64.9 °F - 64.0 °F 97% 30.40 in 9.0 mi NNE 8.1 mph - N/A   Overcast
4:37 AM 64.9 °F - 63.0 °F 93% 30.40 in 8.0 mi NNE 5.8 mph - N/A   Overcast
4:53 AM 64.9 °F - 63.0 °F 93% 30.39 in 8.0 mi NNE 5.8 mph - N/A   Overcast
5:37 AM 64.9 °F - 64.0 °F 97% 30.40 in 8.0 mi NNE 8.1 mph - N/A   Overcast
5:53 AM 64.0 °F - 64.0 °F 100% 30.40 in 8.0 mi NNE 6.9 mph - N/A   Overcast
6:53 AM 64.0 °F - 63.0 °F 96% 30.41 in 3.0 mi NNE 8.1 mph - N/A   Overcast
6:57 AM 64.0 °F - 63.0 °F 96% 30.42 in 2.0 mi NNE 6.9 mph - N/A   Overcast
7:01 AM 63.0 °F - 63.0 °F 100% 30.41 in 1.5 mi NNE 8.1 mph - N/A   Overcast
7:09 AM 63.0 °F - 63.0 °F 100% 30.42 in 2.0 mi NNE 6.9 mph - N/A   Overcast
7:15 AM 63.0 °F - 63.0 °F 100% 30.42 in 3.0 mi NE 4.6 mph - N/A   Overcast
7:20 AM 64.0 °F - 64.0 °F 100% 30.42 in 2.0 mi NNE 5.8 mph - N/A   Overcast
7:22 AM 64.0 °F - 64.0 °F 100% 30.42 in 1.5 mi NNE 5.8 mph - N/A   Overcast
7:33 AM 63.0 °F - 63.0 °F 100% 30.42 in 0.8 mi NNE 5.8 mph - N/A   Mist
7:51 AM 62.6 °F - 62.6 °F 100% 30.43 in 1.2 mi North - - N/A   Overcast
7:53 AM 63.0 °F - 63.0 °F 100% 30.43 in 1.2 mi North - - N/A   Overcast
8:18 AM 63.0 °F - 63.0 °F 100% 30.44 in 2.0 mi NNE 8.1 mph - N/A   Overcast
8:31 AM 64.0 °F - 63.0 °F 96% 30.44 in 2.5 mi NNE 8.1 mph - N/A   Overcast
8:38 AM 64.0 °F - 64.0 °F 100% 30.43 in 4.0 mi NE 5.8 mph - N/A   Overcast
8:53 AM 64.0 °F - 64.0 °F 100% 30.43 in 7.0 mi NE 9.2 mph - N/A   Overcast
9:53 AM 66.9 °F - 64.0 °F 90% 30.44 in 10.0 mi ENE 6.9 mph - N/A   Overcast
10:11 AM 68.0 °F - 64.0 °F 87% 30.45 in 10.0 mi East 5.8 mph - N/A   Overcast
10:30 AM 70.0 °F - 64.0 °F 81% 30.44 in 10.0 mi ENE 9.2 mph - N/A   Overcast
10:45 AM 70.0 °F - 64.0 °F 81% 30.45 in 10.0 mi East 9.2 mph - N/A   Mostly Cloudy
10:53 AM 69.1 °F - 64.0 °F 84% 30.44 in 9.0 mi East 5.8 mph - N/A   Mostly Cloudy
11:36 AM 73.0 °F - 64.9 °F 76% 30.43 in 10.0 mi East 4.6 mph - N/A   Partly Cloudy
11:53 AM 75.0 °F - 64.9 °F 71% 30.42 in 10.0 mi Variable 3.5 mph - N/A   Scattered Clouds
12:07 PM 75.0 °F - 64.9 °F 71% 30.42 in 10.0 mi Variable 3.5 mph - N/A   Mostly Cloudy
12:14 PM 75.0 °F - 66.0 °F 73% 30.41 in 10.0 mi Calm Calm - N/A   Scattered Clouds
12:26 PM 75.9 °F - 64.9 °F 69% 30.41 in 10.0 mi Calm Calm - N/A   Mostly Cloudy
12:35 PM 75.9 °F - 66.0 °F 71% 30.41 in 10.0 mi Variable 4.6 mph - N/A   Scattered Clouds
12:53 PM 77.0 °F - 64.9 °F 66% 30.39 in 10.0 mi ESE 4.6 mph - N/A   Clear
1:53 PM 80.1 °F 81.5 °F 63.0 °F 56% 30.37 in 10.0 mi North - - N/A   Overcast
2:53 PM 78.1 °F - 64.0 °F 62% 30.36 in 10.0 mi NE 8.1 mph - N/A   Overcast
3:53 PM 79.0 °F - 64.0 °F 60% 30.34 in 10.0 mi NE 4.6 mph - N/A   Overcast
4:53 PM 78.1 °F - 63.0 °F 60% 30.32 in 10.0 mi East 5.8 mph - N/A   Clear
5:53 PM 75.9 °F - 64.0 °F 67% 30.32 in 10.0 mi ENE 6.9 mph - N/A   Clear
6:53 PM 73.9 °F - 64.0 °F 71% 30.32 in 10.0 mi NE 5.8 mph - N/A   Partly Cloudy
7:53 PM 73.0 °F - 64.0 °F 73% 30.34 in 10.0 mi NNE 5.8 mph - N/A   Overcast
8:53 PM 70.0 °F - 64.9 °F 84% 30.36 in 10.0 mi East 8.1 mph - N/A   Clear
9:53 PM 66.9 °F - 64.0 °F 90% 30.36 in 10.0 mi East 9.2 mph - N/A   Clear
10:23 PM 66.0 °F - 63.0 °F 90% 30.37 in 10.0 mi East 9.2 mph - N/A   Partly Cloudy
10:48 PM 64.4 °F - 64.4 °F 100% 30.37 in 10.0 mi East 8.1 mph - N/A   Mostly Cloudy
10:53 PM 64.9 °F - 64.0 °F 97% 30.36 in 10.0 mi East 8.1 mph - N/A   Mostly Cloudy
11:19 PM 64.9 °F - 64.0 °F 97% 30.36 in 10.0 mi East 8.1 mph - N/A   Overcast
11:29 PM 64.9 °F - 64.0 °F 97% 30.36 in 10.0 mi ESE 6.9 mph - N/A   Overcast
11:45 PM 64.9 °F - 64.0 °F 97% 30.35 in 10.0 mi East 9.2 mph - N/A   Overcast
11:53 PM 64.9 °F - 64.0 °F 97% 30.34 in 10.0 mi ESE 9.2 mph - N/A   Overcast